Location: Hamayl? Da??
(36.7028°N, 30.1716°E)
Time: 23:56:34
(UTC+00:00)

CSL-04 Debris - Pass Details

Date: 04 August 2024
Orbit: 822 x 843 km, 98.8° (Epoch: 18 September)

Event Time Altitude Azimuth Distance (km) Brightness Sun altitude
Exits shadow 18:02:09 - 168° (SSE) 3,040 6.7 -11.5°
Reaches altitude 10° 18:03:43 10° 169° (S) 2,417 6.2 -11.8°
Maximum altitude 18:09:04 80° 256° (WSW) 844 4.3 -12.7°
Drops below altitude 10° 18:14:30 10° 344° (NNW) 2,445 7.3 -13.6°
Sets 18:16:53 0° 346° (NNW) 3,386 8.1 -14.0°
